Regional Weather Roundup
Issued by NWS Sterling, VA

Home | Current Version | Previous Version | Graphics & Text | Print | Product List | Glossary On
Versions: 1 2 3 4 5 6 7 8 9 10 11 12 13 14 15 16 17 18 19 20 21 22 23 24 25 26 27 28 29 30 31 32 33 34 35 36 37 38 39 40 41 42 43 44 45 46 47 48 49
000
ASUS41 KLWX 071710
RWRLWX

REGIONAL WEATHER ROUNDUP
NATIONAL WEATHER SERVICE BALTIMORE MD/WASHINGTON DC
100 PM EDT TUE JUL 07 2015

Note: "FAIR" indicates few or no clouds below 12,000 feet
with no significant weather and/or obstructions to visibility.
 TC=TEMPERATURE CELSIUS

 * =Non NWS site. Station does not report precipitation (e.g. rain,
    snow, etc.), thunder, or fog.

DCZ001-MDZ009-015-VAZ040>042-051-053>054-071800-
WASHINGTON METRO

CITY           SKY/WX    TMP DP  RH WIND       PRES   REMARKS
WASHINGTON NAT MOSUNNY   86  74  67 S13       30.03F HX  94
DULLES         PTSUNNY   85  68  56 W7        30.05S
ANDREWS AFB    MOSUNNY   85  79  80 VRB5      30.04S HX  98
FT BELVOIR     MOSUNNY   86  71  59 S6        30.04F HX  91
QUANTICO       MOSUNNY   83  73  72 S9        30.05F
COLLEGE PARK*  MOSUNNY   86  66  51 CALM      30.03S
LEESBURG*      MOSUNNY   88  72  58 SW6       30.06S HX  94
GAITHERSBURG*  MOSUNNY   84  70  61 SW6       30.08F

$$

MDZ006>007-011-014-071800-
BALTIMORE METRO

CITY           SKY/WX    TMP DP  RH WIND       PRES   REMARKS
BWI AIRPORT    MOSUNNY   86  69  56 W6        30.02F HX  90
MD SCIENCE CTR   N/A     87  67  51 MISG      30.04F HX  90
MARTIN STATE   MOSUNNY   84  75  74 S7        30.05  HX  92
ANNAPOLIS      PTSUNNY   81  74  79 SE9       30.02F
FORT MEADE*    MOSUNNY   82  72  69 SW6       30.05F

$$

MDZ012-015-019>023-071800-
MARYLAND EASTERN SHORE

CITY           SKY/WX    TMP DP  RH WIND       PRES   REMARKS
OCEAN CITY     SUNNY     86  72  62 SW9       30.05F HX  92
SALISBURY      MOSUNNY   85  73  67 SW14      30.05F HX  91
BAY BRIDGE AP*   N/A     82  68  61 CALM      30.03F
CAMBRIDGE*     SUNNY     86  70  58 SW7       30.04F HX  90
EASTON*        MOSUNNY   86  75  70 SW8       30.08F HX  95

$$

MDZ017>025-071800-
SOUTHERN MARYLAND

CITY           SKY/WX    TMP DP  RH WIND       PRES   REMARKS
PATUXENT RIVER MOSUNNY   86  72  62 SW8       30.04F HX  92
ST INIGOES     NOT AVBL
LEONARDTOWN*   MOSUNNY   84  68  58 W7        30.06F

$$

MDZ003>005-071800-
NORTH CENTRAL MARYLAND

CITY           SKY/WX    TMP DP  RH WIND       PRES   REMARKS
FREDERICK*     NOT AVBL
HAGERSTOWN APT MOSUNNY   84  66  54 VRB5      30.04F
WESTMINSTER*   MOSUNNY   82  75  78 SW8       30.06S

$$

MDZ501>502-071800-
WESTERN MARYLAND

CITY           SKY/WX    TMP DP  RH WIND       PRES   REMARKS
OAKLAND*       MOSUNNY   73 N/A N/A SW10G17   30.15F
CUMBERLAND*    SUNNY     86  66  51 S7        30.07F

$$

VAZ025>031-071800-
SHENANDOAH VALLEY

CITY           SKY/WX    TMP DP  RH WIND       PRES   REMARKS
WINCHESTER*    MOSUNNY   86  68  54 SW9       30.06F
FRONT ROYAL*   FAIR      82  68  61 S7        30.06F
LURAY*         FAIR      86  68  54 S5        30.08F
NEW MARKET*    NOT AVBL
STAUNTON*      PTSUNNY   85  67  55 SW5       30.12F
WAYNESBORO*    FAIR      81  67  62 SW5       30.13S

$$

WVZ021-048>050-054>055-071800-
EASTERN WEST VIRGINIA PANHANDLE

CITY           SKY/WX    TMP DP  RH WIND       PRES   REMARKS
MARTINSBURG    MOSUNNY   84  68  58 VRB6      30.05F
PETERSBURG*    SUNNY     84  62  46 S6        30.07S

$$

VAZ036>039-050-071800-
CENTRAL FOOTHILLS

CITY           SKY/WX    TMP DP  RH WIND       PRES   REMARKS
CHARLOTTESVILL SUNNY     85  67  54 CALM      30.08F
CULPEPER*      SUNNY     85  68  57 CALM      30.06F
ORANGE*        SUNNY     88  66  48 S5        30.09S HX  90
GORDONSVILLE*  FAIR      84  68  58 W6        30.07S
WARRENTON*     PTSUNNY   88  71  57 SW5       30.06S HX  94

$$

VAZ055>057-071800-
NORTH AND CENTRAL PIEDMONT

CITY           SKY/WX    TMP DP  RH WIND       PRES   REMARKS
FREDERICKSBRG* SUNNY     89  69  51 SW8       30.05S HX  93
STAFFORD*      MOSUNNY   84  68  57 W5        30.10S

$$

NCZ024-NYZ072-PAZ021-071-VAZ022-071-071800-
OTHER REGIONAL OBSERVATIONS

CITY           SKY/WX    TMP DP  RH WIND       PRES   REMARKS
NEW YORK CITY  MOSUNNY   85  69  58 W8        30.02F
PHILADELPHIA   MOSUNNY   87  69  54 SW10      30.01F HX  91
PITTSBURGH     PTSUNNY   82  68  62 SW15      30.00F
ROANOKE        MOSUNNY   83  66  56 W10       30.15S
RICHMOND       MOSUNNY   87  71  58 SW9       30.07F HX  93
RALEIGH        MOSUNNY   87  72  60 S7        30.12F HX  93

$$

ANZ530>537-071800-
MARINE OBSERVATIONS

STATION/POSITION TIME  TEMP    WIND        PRES
                       AIR SEA DIR/SP/G
                 (UTC) (F)     (DEG/KT/KT) (MB)
THOMAS PT LIGHT  NOT AVBL
BALT KEY BRIDGE  1600   80     120/  6/  7 1017.0F
COVE POINT       1600   80     170/  7/  8 1018.3F
LEWISETTA        1600   84 81  230/  4/  6 1017.7F
SOLOMONS ISLAND  1600      80                N/A
PINEY POINT      1600          150/  5/  5   N/A

$$




USA.gov is the U.S. government's official web portal to all federal, state and local government web resources and services.